Dewpoint
48 47 47 46 45 45 45 46 46 46 45 45 45 45 46 46 46 46 46 47 46 46 46 46 47 47 43 31 25 10 47 39 22 38 31 27 26 23 23 26 27 26 26 23 23 21 19
47 46 46 46 45 45 45 45 45 44 44 44 44 45 45 45 46 46 46 47 47 47 46 47 48 48 41 29 21 23 24 25 22 38 30 23 25 26 24 26 26 26 26 24 23 22 22
47 47 48 46 45 45 45 44 43 44 44 44 44 44 45 45 45 46 46 46 48 48 47 48 50 47 40 31 24 23 25 24 24 26 34 34 26 24 24 23 24 24 23 24 24 25 25
45 44 44 46 47 45 44 43 43 44 44 43 44 44 44 44 44 45 46 47 48 48 47 49 50 45 35 33 35 33 32 29 28 24 26 24 33 31 27 25 26 22 24 22 24 23 23
44 43 44 45 45 44 41 41 43 43 43 43 43 43 43 45 46 46 46 47 47 45 48 48 44 41 28 37 34 36 36 36 33 28 29 19 22 33 29 26 24 26 21 24 25 25 23
44 44 44 43 42 40 40 41 42 42 43 43 42 42 42 43 45 46 46 46 43 44 40 41 40 37 32 21 29 34 28 37 35 30 26 23 25 26 29 24 20 21 22 23 23 24 26
44 43 42 42 40 39 40 41 42 43 42 42 42 42 42 43 44 45 40 30 22 26 29 21 16 13 14 14 17 20 19 33 32 28 12 19 17 18 20 24 23 21 20 21 22 24 25
43 44 42 40 38 39 39 40 42 41 41 41 42 42 42 43 43 43 36 28 31 33 30 25 24 25 25 26 26 22 21 24 30 25 10 15 12 15 15 19 20 25 25 20 21 25 26
42 40 39 38 38 38 39 40 41 41 41 41 42 42 42 42 43 37 33 31 33 35 29 20 21 25 29 30 28 27 22 18 24 25 15 13 12 13 19 18 22 24 21 19 19 20 22
39 38 38 38 37 40 40 39 40 40 40 41 41 42 42 42 36 32 26 29 35 38 25 9 23 33 36 35 31 30 26 20 22 23 23 15 11 17 20 19 22 18 18 18 19 19 18
39 38 37 37 37 39 39 39 40 40 40 41 41 42 42 41 36 29 29 35 37 39 6 3 22 36 31 34 32 28 30 23 20 23 28 22 19 18 19 15 16 15 15 17 16 14 18
40 40 39 38 40 38 38 40 40 40 41 41 42 42 42 36 35 34 36 38 37 25 2 7 17 22 19 27 26 27 30 26 22 22 29 25 28 22 19 20 19 17 17 21 24 24 24
38 40 39 36 36 35 38 39 40 41 41 42 42 42 40 35 33 39 40 33 18 7 -0 9 17 17 19 27 30 26 26 22 17 22 24 23 21 30 27 28 23 24 25 25 24 24 17
38 37 37 35 35 38 38 40 40 40 41 42 43 41 37 36 39 41 35 22 5 -4 5 19 15 18 29 33 30 24 21 17 18 16 16 16 15 30 33 25 23 25 23 21 12 13 13
38 39 36 35 36 38 39 39 39 40 42 43 42 36 36 39 42 40 31 17 3 6 10 12 14 22 25 24 33 21 17 13 16 19 15 16 13 20 31 32 27 28 26 26 21 26 23
41 38 35 34 37 37 40 39 39 41 42 42 34 33 33 42 43 37 29 17 14 15 16 15 22 24 23 23 30 30 18 14 16 19 20 16 21 21 31 32 32 28 28 26 28 22 19
40 36 34 38 35 37 38 38 39 41 42 40 35 26 33 41 41 34 25 19 20 18 17 18 26 26 26 28 31 33 33 27 29 21 21 19 22 26 29 25 26 28 27 28 26 27 22
40 36 36 36 36 37 38 37 39 41 41 37 36 30 35 42 33 31 24 22 25 22 21 18 27 28 29 30 31 34 34 32 31 29 24 32 26 23 22 31 27 23 23 25 23 26 27
37 37 35 36 39 38 37 37 38 40 40 37 34 28 34 40 26 23 23 20 22 23 24 18 18 25 32 32 30 33 35 34 35 32 29 29 28 26 28 29 29 27 29 30 32 31 28
38 39 36 36 37 38 36 37 37 39 40 37 34 32 28 35 32 26 22 21 24 24 31 30 28 36 34 33 34 33 34 34 36 34 39 34 26 24 22 25 27 29 29 29 28 29 24
41 37 36 39 36 38 38 36 37 39 42 36 34 30 28 29 29 27 25 27 25 27 26 33 30 29 31 29 29 31 33 33 30 36 35 32 24 25 24 23 23 21 19 20 21 22 23
40 39 37 39 36 36 36 37 38 38 41 38 34 28 28 25 26 24 22 25 23 22 28 27 28 30 28 29 31 30 31 31 30 30 31 33 25 21 22 20 17 15 14 14 17 20 21
39 37 37 36 34 35 37 38 36 38 41 38 35 35 32 23 21 21 20 17 19 22 24 27 29 28 28 30 32 33 34 34 32 31 30 26 22 16 17 17 13 13 18 15 18 22 23
37 38 36 36 36 36 37 38 37 39 42 41 38 37 31 24 21 19 20 19 19 20 24 27 29 29 30 33 34 33 34 31 30 31 31 23 19 21 18 16 5 19 20 23 21 27 29
36 37 37 37 35 37 40 40 38 40 42 42 40 38 33 27 21 17 21 22 23 25 25 27 28 30 35 34 27 17 22 23 25 29 28 29 24 21 17 12 14 23 27 26 24 24 32
36 37 37 36 36 38 40 36 37 40 41 43 40 41 37 32 22 22 22 24 23 23 22 25 30 34 35 31 26 20 18 19 18 21 29 28 28 24 21 11 11 27 29 31 30 21 33
37 37 37 37 36 38 40 37 36 40 40 43 41 41 38 34 27 27 24 22 25 22 21 24 27 30 33 31 26 23 20 23 18 17 22 25 27 24 23 19 21 32 31 31 21 30 35
37 37 37 37 37 38 40 37 37 39 40 42 41 41 38 32 29 30 28 26 24 25 24 27 29 29 31 28 24 25 25 26 24 27 26 23 25 26 25 21 17 34 30 29 34 36 35
37 37 37 36 37 39 40 38 37 38 40 42 39 42 42 36 34 36 35 34 31 29 29 31 31 28 31 28 27 27 27 28 25 23 28 28 30 29 29 28 34 33 33 33 34 32 35
Lifted_Index
14 14 14 14 15 15 15 15 15 16 16 16 15 15 14 14 13 13 13 13 13 13 13 12 11 11 10 9 9 11 12 13 12 9 8 8 8 8 7 6 6 6 6 7 8 8 8
14 14 14 14 14 15 15 15 15 15 15 15 14 14 14 13 13 13 13 13 12 12 12 11 10 10 9 9 10 11 12 12 11 9 8 8 8 8 7 7 7 7 7 7 7 7 7
14 14 14 14 14 14 15 15 15 15 14 14 14 13 13 13 13 13 13 12 12 11 11 10 8 8 8 9 10 10 11 11 11 9 8 7 7 8 8 8 7 7 7 7 7 7 7
14 14 14 14 14 14 14 15 14 14 14 14 13 13 13 13 13 13 12 12 11 10 9 8 7 7 8 8 8 8 9 9 9 9 9 8 8 7 7 7 7 7 6 6 6 6 6
14 15 14 14 14 14 14 14 14 13 13 13 13 13 13 13 12 12 12 11 11 10 8 7 6 6 7 7 7 6 6 7 7 8 9 9 8 7 6 6 6 6 5 5 5 6 6
14 14 14 14 14 14 14 14 13 13 13 13 13 13 13 13 12 12 11 11 11 9 8 7 6 7 7 7 7 6 6 5 5 6 8 8 7 6 6 5 5 5 5 5 5 5 5
14 14 14 14 14 14 14 13 13 13 13 13 13 13 13 12 12 11 11 11 11 10 9 8 7 7 7 7 7 7 6 5 4 5 6 7 6 6 6 5 5 5 5 5 4 5 5
14 14 14 14 14 14 13 13 13 13 13 13 13 12 12 12 11 11 11 11 10 10 9 8 7 7 6 6 7 7 6 5 4 4 5 6 5 5 6 5 5 5 5 5 4 4 5
15 15 15 14 14 13 13 13 13 12 12 12 12 12 12 11 11 11 11 10 10 9 7 6 5 4 4 4 5 5 5 5 3 3 4 5 5 5 5 5 6 5 5 5 4 4 4
15 15 14 14 13 13 13 13 12 12 12 12 12 11 11 11 11 11 10 10 9 7 6 5 3 2 2 2 3 3 3 4 3 2 3 4 5 5 5 5 5 5 4 4 4 4 4
15 14 14 13 13 13 13 12 12 12 12 11 11 11 11 10 10 10 10 9 8 6 4 3 2 2 2 2 1 1 2 3 2 1 1 2 3 4 4 4 4 4 4 4 4 3 3
14 13 13 13 13 13 12 12 12 11 11 11 10 10 10 10 10 9 9 8 7 5 3 2 2 3 3 2 1 1 2 2 2 1 0 1 2 3 3 3 3 3 3 2 2 2 2
13 13 13 13 13 13 12 12 11 11 10 10 10 10 10 9 9 9 8 7 6 4 2 2 3 3 3 2 1 1 1 2 2 1 0 1 1 2 2 2 2 2 1 1 0 1 1
13 13 13 13 13 12 12 11 11 11 10 10 9 9 9 9 8 8 7 6 4 3 2 3 3 2 2 1 1 1 2 2 2 1 1 1 2 1 1 1 1 1 -0 -0 0 1 1
13 13 13 13 12 12 11 11 11 10 10 9 9 9 9 8 8 7 6 4 3 2 3 3 3 2 2 2 1 1 2 2 2 1 1 1 2 1 0 -0 0 -0 -0 -0 0 1 1
12 13 13 13 12 11 11 11 10 10 9 9 9 9 8 8 7 7 5 3 3 3 4 4 3 3 2 2 1 1 1 1 1 1 1 1 1 1 0 -1 -1 -0 0 1 1 1 0
12 13 13 12 12 11 11 10 10 9 9 9 9 8 8 8 7 6 4 3 3 4 4 4 4 3 3 2 1 0 0 1 0 0 0 0 0 0 -0 -0 -0 0 1 1 1 1 1
12 13 13 12 12 11 11 10 10 9 9 9 8 8 8 7 6 5 4 3 4 4 5 5 4 3 3 2 1 1 0 0 0 -0 -0 -0 -0 -0 -0 -0 0 1 1 1 1 1 1
13 13 13 12 11 11 11 10 10 9 9 9 8 8 7 7 6 5 4 3 3 4 4 4 4 3 3 2 2 1 1 1 0 0 -0 -0 -0 -0 -0 0 1 1 1 1 1 2 2
12 12 12 12 11 11 11 10 10 9 9 8 8 7 7 7 6 4 3 3 3 3 2 2 2 2 2 2 2 2 1 1 1 1 1 0 -0 -0 -0 0 1 1 1 1 2 2 2
11 11 11 11 11 11 11 10 10 9 8 8 8 7 7 6 6 4 3 2 2 2 2 1 1 1 1 2 3 3 3 2 2 2 1 1 0 -0 0 0 1 1 2 2 2 2 2
11 11 11 11 11 11 10 10 10 9 8 8 8 7 7 6 6 4 3 2 2 2 2 2 2 1 1 2 3 3 4 3 3 3 2 2 1 1 1 2 2 2 3 3 3 3 3
11 11 11 11 11 11 10 10 10 9 8 8 8 8 7 6 6 5 3 3 2 2 2 2 2 1 1 2 3 3 4 4 4 3 3 3 2 2 2 2 2 3 4 4 4 3 3
11 11 11 11 11 10 10 10 10 9 8 8 8 8 7 6 6 5 4 4 3 3 3 2 2 2 2 2 2 2 2 3 3 3 3 3 3 2 2 2 2 3 3 4 4 4 4
11 11 11 11 11 10 10 10 9 9 8 8 8 8 7 6 5 5 5 4 4 3 3 3 3 3 3 2 1 1 1 2 2 2 2 2 3 2 2 1 2 3 3 3 4 4 4
10 10 10 10 10 10 9 10 9 9 8 7 7 7 7 6 5 5 5 4 4 3 3 3 3 3 2 2 1 1 1 1 2 2 2 2 2 2 2 2 2 3 3 3 3 4 5
10 10 10 10 10 9 9 10 9 9 8 7 7 7 7 6 5 5 4 4 4 4 3 3 3 3 2 2 1 1 1 2 2 2 2 2 2 2 2 2 2 3 3 3 3 4 5
9 9 10 10 9 9 9 9 9 9 8 7 7 7 6 5 5 4 4 4 4 4 4 3 3 3 3 2 2 2 2 2 2 2 2 2 2 2 2 2 2 3 4 4 4 5 5
9 9 9 9 9 9 8 9 9 9 8 7 7 6 6 5 5 5 5 4 4 4 4 4 3 3 3 3 2 3 3 3 2 2 2 2 2 2 2 2 3 4 4 4 5 5 5